Tillbaka till svenska Fidonet
English   Information   Debug  
FILM   0/18
FNEWS_PUBLISH   4851
FN_SYSOP   42078
FN_SYSOP_OLD1   71952
FTP_FIDO   0/2
FTSC_PUBLIC   0/13916
FUNNY   0/4886
GENEALOGY.EUR   0/71
GET_INFO   105
GOLDED   0/408
HAM   7569/16598
HOLYSMOKE   0/6791
HOT_SITES   0/1
HTMLEDIT   0/71
HUB203   466
HUB_100   264
HUB_400   39
HUMOR   0/29
IC   0/2851
INTERNET   0/424
INTERUSER   0/3
IP_CONNECT   719
JAMNNTPD   0/233
JAMTLAND   0/47
KATTY_KORNER   0/41
LAN   0/16
LINUX-USER   0/19
LINUXHELP   0/1155
LINUX   0/22279
LINUX_BBS   0/957
mail   18.68
mail_fore_ok   249
MENSA   0/341
MODERATOR   0/102
MONTE   0/992
MOSCOW_OKLAHOMA   0/1245
MUFFIN   0/783
MUSIC   0/321
N203_STAT   938
N203_SYSCHAT   313
NET203   321
NET204   69
NET_DEV   0/10
NORD.ADMIN   0/101
NORD.CHAT   0/2572
NORD.FIDONET   189
NORD.HARDWARE   0/28
NORD.KULTUR   0/114
NORD.PROG   0/32
NORD.SOFTWARE   0/88
NORD.TEKNIK   0/58
NORD   0/453
OCCULT_CHAT   0/93
OS2BBS   0/787
OS2DOSBBS   0/580
OS2HW   0/42
OS2INET   0/37
OS2LAN   0/134
OS2PROG   0/36
OS2REXX   0/113
OS2USER-L   207
OS2   0/4823
OSDEBATE   9016/18996
PASCAL   0/490
PERL   0/457
PHP   0/45
POINTS   0/405
POLITICS   0/29554
POL_INC   2747/14731
PSION   103
R20_ADMIN   1133
R20_AMATORRADIO   0/2
R20_BEST_OF_FIDONET   16
R20_CHAT   0/896
R20_DEPP   0/3
R20_DEV   400
R20_ECHO2   1764
R20_ECHOPRES   0/35
R20_ESTAT   0/719
R20_FIDONETPROG...
...RAM.MYPOINT
  0/2
R20_FIDONETPROGRAM   0/22
R20_FIDONET   0/248
R20_FILEFIND   0/24
R20_FILEFOUND   0/22
R20_HIFI   0/3
R20_INFO2   3657
R20_INTERNET   0/12940
R20_INTRESSE   0/60
R20_INTR_KOM   0/99
R20_KANDIDAT.CHAT   42
R20_KANDIDAT   28
R20_KOM_DEV   112
R20_KONTROLL   0/13360
R20_KORSET   0/18
R20_LOKALTRAFIK   0/24
R20_MODERATOR   0/1852
R20_NC   76
R20_NET200   245
R20_NETWORK.OTH...
...ERNETS
  0/13
R20_OPERATIVSYS...
...TEM.LINUX
  0/44
R20_PROGRAMVAROR   0/1
R20_REC2NEC   534
R20_SFOSM   0/341
R20_SF   0/108
R20_SPRAK.ENGLISH   0/1
R20_SQUISH   107
R20_TEST   2
R20_WORST_OF_FIDONET   20
RAR   0/9
RA_MULTI   106
RA_UTIL   0/162
REGCON.EUR   0/2067
REGCON   0/13
SCIENCE   0/1206
SF   0/239
SHAREWARE_SUPPORT   0/5146
SHAREWRE   0/14
SIMPSONS   0/169
STATS_OLD1   0/2539.065
STATS_OLD2   0/2530
STATS_OLD3   0/2395.095
STATS_OLD4   0/1692.25
SURVIVOR   0/495
SYSOPS_CORNER   0/3
SYSOP   0/84
TAGLINES   0/112
TEAMOS2   0/4530
TECH   0/2617
TEST.444   0/105
TRAPDOOR   0/19
TREK   0/755
TUB   0/290
UFO   0/40
UNIX   0/1316
USA_EURLINK   0/102
USR_MODEMS   0/1
VATICAN   0/2740
VIETNAM_VETS   0/14
VIRUS   0/378
VIRUS_INFO   0/201
VISUAL_BASIC   0/473
WHITEHOUSE   0/5187
WIN2000   0/101
WIN32   0/30
WIN95   0/4291
WIN95_OLD1   0/70272
WINDOWS   0/1517
WWB_SYSOP   0/419
WWB_TECH   0/810
ZCC-PUBLIC   0/1
ZEC   4

 
4DOS   0/134
ABORTION   0/7
ALASKA_CHAT   0/506
ALLFIX_FILE   0/1313
ALLFIX_FILE_OLD1   0/7997
ALT_DOS   0/152
AMATEUR_RADIO   0/1039
AMIGASALE   0/14
AMIGA   297/331
AMIGA_INT   0/1
AMIGA_PROG   0/20
AMIGA_SYSOP   0/26
ANIME   0/15
ARGUS   0/924
ASCII_ART   0/340
ASIAN_LINK   0/651
ASTRONOMY   0/417
AUDIO   0/92
AUTOMOBILE_RACING   0/105
BABYLON5   0/17862
BAG   135
BATPOWER   0/361
BBBS.ENGLISH   0/382
BBSLAW   0/109
BBS_ADS   149/5290
BBS_INTERNET   0/507
BIBLE   0/3563
BINKD   0/1119
BINKLEY   0/215
BLUEWAVE   0/2173
CABLE_MODEMS   0/25
CBM   0/46
CDRECORD   0/66
CDROM   0/20
CLASSIC_COMPUTER   0/378
COMICS   0/15
CONSPRCY   0/899
COOKING   40783
COOKING_OLD1   19719/24719
COOKING_OLD2   0/40862
COOKING_OLD3   0/37489
COOKING_OLD4   31960/35496
COOKING_OLD5   9370
C_ECHO   0/189
C_PLUSPLUS   0/31
DIRTY_DOZEN   0/201
DOORGAMES   0/2235
DOS_INTERNET   0/196
duplikat   6102
ECHOLIST   0/18295
EC_SUPPORT   0/318
ELECTRONICS   0/359
ELEKTRONIK.GER   1534
ENET.LINGUISTIC   0/13
ENET.POLITICS   0/4
ENET.SOFT   0/11701
ENET.SYSOP   34241
ENET.TALKS   0/32
ENGLISH_TUTOR   0/2000
EVOLUTION   0/1335
FDECHO   0/217
FDN_ANNOUNCE   0/7068
FIDONEWS   24878
FIDONEWS_OLD1   0/49742
FIDONEWS_OLD2   0/35949
FIDONEWS_OLD3   0/30874
FIDONEWS_OLD4   0/37224
FIDO_SYSOP   12919
FIDO_UTIL   0/180
FILEFIND   0/209
FILEGATE   0/212
Möte HAM, 16598 texter
 lista första sista föregående nästa
Text 814, 735 rader
Skriven 2006-02-03 00:31:10 av Amsat List (1:323/120.0)
Ärende: 
========
SB KEPS @ AMSAT  $ORB06033.O
Orbital Elements  06033.OSCAR

HR AMSAT ORBITAL ELEMENTS FOR OSCAR SATELLITES
FROM WA5QGD FORT WORTH,TX February 2, 2006
Send SUBSCRIBE KEPS/UNSUBSCRIBE KEPS to majordomo@amsat.org only
BID: ORB06033.O
TO ALL RADIO AMATEURS BT

Satellite: AO-07
Catalog number: 07530
Epoch time:      06032.75507474
Element set:    0555
Inclination:      101.5919 deg
RA of node:       078.9684 deg
Eccentricity:    0.0012116
Arg of perigee:   149.1255 deg
Mean anomaly:     211.0532 deg
Mean motion:   12.53571784 rev/day
Decay rate:       -2.8e-07 rev/day^2
Epoch rev:           42841
Checksum:              291

Satellite: AO-10
Catalog number: 14129
Epoch time:      06031.81300958
Element set:    0255
Inclination:      027.4692 deg
RA of node:       351.3227 deg
Eccentricity:    0.6031734
Arg of perigee:   257.9867 deg
Mean anomaly:     032.5117 deg
Mean motion:   02.05869523 rev/day
Decay rate:      -3.36e-06 rev/day^2
Epoch rev:           17024
Checksum:              291

Satellite: UO-11
Catalog number: 14781
Epoch time:      06032.57470057
Element set:    0985
Inclination:      098.2091 deg
RA of node:       039.9004 deg
Eccentricity:    0.0008980
Arg of perigee:   348.0155 deg
Mean anomaly:     012.0849 deg
Mean motion:   14.79375203 rev/day
Decay rate:       -1.1e-07 rev/day^2
Epoch rev:           17571
Checksum:              296

Satellite: RS-10/11
Catalog number: 18129
Epoch time:      06033.63696901
Element set:     904
Inclination:      082.9210 deg
RA of node:       067.6909 deg
Eccentricity:    0.0013382
Arg of perigee:   103.7172 deg
Mean anomaly:     256.5501 deg
Mean motion:   13.72770757 rev/day
Decay rate:        6.4e-07 rev/day^2
Epoch rev:           93269
Checksum:              306

Satellite: RS-15
Catalog number: 23439
Epoch time:      06032.67247187
Element set:    0932
Inclination:      064.8184 deg
RA of node:       096.4029 deg
Eccentricity:    0.0167682
Arg of perigee:   277.0608 deg
Mean anomaly:     081.1273 deg
Mean motion:   11.27551540 rev/day
Decay rate:       -3.9e-07 rev/day^2
Epoch rev:           45726
Checksum:              316

Satellite: FO-29
Catalog number: 24278
Epoch time:      06032.61300857
Element set:    0151
Inclination:      098.5168 deg
RA of node:       055.8616 deg
Eccentricity:    0.0350202
Arg of perigee:   301.5979 deg
Mean anomaly:     055.1416 deg
Mean motion:   13.52918618 rev/day
Decay rate:       -4.4e-07 rev/day^2
Epoch rev:           46721
Checksum:              302

Satellite: SO-33
Catalog number: 25509
Epoch time:      06033.73825786
Element set:     572
Inclination:      031.4298 deg
RA of node:       169.3448 deg
Eccentricity:    0.0355402
Arg of perigee:   021.1536 deg
Mean anomaly:     340.3390 deg
Mean motion:   14.28071519 rev/day
Decay rate:      -1.46e-06 rev/day^2
Epoch rev:           37980
Checksum:              307

Satellite: AO-40
Catalog number: 26609
Epoch time:      06033.20915682
Element set:     671
Inclination:      007.3320 deg
RA of node:       257.2451 deg
Eccentricity:    0.7915540
Arg of perigee:   128.0107 deg
Mean anomaly:     332.5414 deg
Mean motion:   01.25583209 rev/day
Decay rate:      -1.25e-06 rev/day^2
Epoch rev:            2415
Checksum:              265

Satellite: VO-52
Catalog number: 28650
Epoch time:      06032.80018944
Element set:     243
Inclination:      097.8868 deg
RA of node:       108.1675 deg
Eccentricity:    0.0028525
Arg of perigee:   081.7959 deg
Mean anomaly:     278.6451 deg
Mean motion:   14.81044391 rev/day
Decay rate:       2.52e-06 rev/day^2
Epoch rev:            4034
Checksum:              315

/EX
SB KEPS @ AMSAT  $ORB06033.D
Orbital Elements  06033.MICROS

HR AMSAT ORBITAL ELEMENTS FOR THE MICROSATS
FROM WA5QGD FORT WORTH,TX February 2, 2006
Send SUBSCRIBE KEPS/UNSUBSCRIBE KEPS to majordomo@amsat.org only
BID: ORB06033.D
TO ALL RADIO AMATEURS BT

Satellite: AO-16
Catalog number: 20439
Epoch time:      06032.56940273
Element set:    0665
Inclination:      098.1924 deg
RA of node:       050.1020 deg
Eccentricity:    0.0010028
Arg of perigee:   237.6804 deg
Mean anomaly:     122.3414 deg
Mean motion:   14.31709162 rev/day
Decay rate:        1.7e-07 rev/day^2
Epoch rev:           83691
Checksum:              268

Satellite: WO-18
Catalog number: 20441
Epoch time:      06032.63239160
Element set:     864
Inclination:      098.1980 deg
RA of node:       054.7379 deg
Eccentricity:    0.0010633
Arg of perigee:   240.7606 deg
Mean anomaly:     119.2521 deg
Mean motion:   14.31780240 rev/day
Decay rate:        5.0e-08 rev/day^2
Epoch rev:           83698
Checksum:              289

Satellite: LO-19
Catalog number: 20442
Epoch time:      06032.90211048
Element set:    0603
Inclination:      098.2016 deg
RA of node:       059.7535 deg
Eccentricity:    0.0011084
Arg of perigee:   235.7785 deg
Mean anomaly:     124.2346 deg
Mean motion:   14.31953458 rev/day
Decay rate:        1.7e-07 rev/day^2
Epoch rev:           83709
Checksum:              289

Satellite: UO-22
Catalog number: 21575
Epoch time:      06032.85889167
Element set:    0617
Inclination:      098.2775 deg
RA of node:       354.9507 deg
Eccentricity:    0.0008095
Arg of perigee:   112.8499 deg
Mean anomaly:     247.3543 deg
Mean motion:   14.39531773 rev/day
Decay rate:       -3.5e-07 rev/day^2
Epoch rev:           76354
Checksum:              344

Satellite: KO-23
Catalog number: 22077
Epoch time:      06033.49149796
Element set:     701
Inclination:      066.0853 deg
RA of node:       024.1364 deg
Eccentricity:    0.0007192
Arg of perigee:   200.0889 deg
Mean anomaly:     159.9847 deg
Mean motion:   12.86435108 rev/day
Decay rate:       -3.7e-07 rev/day^2
Epoch rev:           63321
Checksum:              304

